When you browse on this site, cookies collect data to enhance your experience and personalize the content and advertising you see.
Visit our Privacy Policy to learn more. By continuing to use the site, you agree to this use of cookies and data.
  • In Romania
  • List of Countries
  • For 7 days
  • Water Temperature
  • Satellite Maps
  • Weather Map
  • Weather Widgets
  • user-avatar
    Login

    Hourly Weather Mikli

    Today, 23 July, Tuesday

    Time Temperature Precipitation Wind Pressure Humidity
    00:00 +19°C° 0 mm 1 mps 760 mmHg 64%
    01:00 +17°C° 0 mm 2 mps 760 mmHg 67%
    02:00 +16°C° 0 mm 2 mps 760 mmHg 71%
    03:00 +16°C° 0 mm 2 mps 760 mmHg 71%
    04:00 +16°C° 0 mm 2 mps 760 mmHg 72%
    05:00 +16°C° 0 mm 2 mps 760 mmHg 72%
    06:00 +18°C° 0 mm 2 mps 760 mmHg 65%
    07:00 +20°C° 0 mm 2 mps 760 mmHg 58%
    08:00 +22°C° 0 mm 1 mps 760 mmHg 51%
    09:00 +23°C° 0 mm 1 mps 760 mmHg 48%
    10:00 +24°C° 0 mm 2 mps 760 mmHg 44%
    11:00 +25°C° 0 mm 2 mps 760 mmHg 41%
    12:00 +26°C° 0 mm 2 mps 760 mmHg 40%
    13:00 +26°C° 0 mm 2 mps 760 mmHg 39%
    14:00 +26°C° 0 mm 2 mps 760 mmHg 38%
    15:00 +26°C° 0 mm 2 mps 760 mmHg 39%
    16:00 +26°C° 0 mm 2 mps 760 mmHg 41%
    17:00 +25°C° 0 mm 3 mps 760 mmHg 42%
    18:00 +23°C° 0 mm 2 mps 760 mmHg 47%
    19:00 +21°C° 0 mm 2 mps 760 mmHg 51%
    20:00 +19°C° 0 mm 2 mps 760 mmHg 56%
    21:00 +18°C° 0 mm 2 mps 760 mmHg 54%
    22:00 +17°C° 0 mm 2 mps 760 mmHg 53%
    23:00 +18°C° 0 mm 1 mps 760 mmHg 52%

    Tomorrow, 24 July, Wednesday

    Time Temperature Precipitation Wind Pressure Humidity
    00:00 +16°C° 0.2 mm 2 mps 760 mmHg 60%
    01:00 +15°C° 0.2 mm 2 mps 760 mmHg 68%
    02:00 +15°C° 0.2 mm 2 mps 760 mmHg 76%
    03:00 +15°C° 0.2 mm 2 mps 760 mmHg 80%
    04:00 +14°C° 0.2 mm 2 mps 760 mmHg 85%
    05:00 +14°C° 0.2 mm 1 mps 760 mmHg 89%
    06:00 +15°C° 0 mm 1 mps 760 mmHg 86%
    07:00 +16°C° 0 mm 1 mps 760 mmHg 83%
    08:00 +18°C° 0 mm 1 mps 760 mmHg 79%
    09:00 +18°C° 0 mm 1 mps 760 mmHg 76%
    10:00 +18°C° 0 mm 1 mps 761 mmHg 73%
    11:00 +18°C° 0 mm 1 mps 761 mmHg 70%
    12:00 +19°C° 0 mm 1 mps 761 mmHg 66%
    13:00 +20°C° 0 mm 1 mps 761 mmHg 61%
    14:00 +21°C° 0 mm 1 mps 761 mmHg 57%
    15:00 +20°C° 0 mm 2 mps 761 mmHg 58%
    16:00 +20°C° 0 mm 2 mps 761 mmHg 59%
    17:00 +20°C° 0 mm 2 mps 761 mmHg 59%
    18:00 +19°C° 0 mm 2 mps 761 mmHg 66%
    19:00 +17°C° 0 mm 2 mps 761 mmHg 72%
    20:00 +16°C° 0 mm 1 mps 761 mmHg 78%
    21:00 +15°C° 0 mm 1 mps 761 mmHg 80%
    22:00 +15°C° 0 mm 1 mps 762 mmHg 82%
    23:00 +14°C° 0 mm 1 mps 762 mmHg 85%

    Day after tomorrow, 25 July, Thursday

    Time Temperature Precipitation Wind Pressure Humidity
    00:00 +14°C° 0 mm 2 mps 762 mmHg 88%
    01:00 +13°C° 0 mm 2 mps 763 mmHg 92%
    02:00 +12°C° 0 mm 2 mps 763 mmHg 95%
    03:00 +12°C° 0 mm 2 mps 763 mmHg 93%
    04:00 +13°C° 0 mm 2 mps 763 mmHg 92%
    05:00 +13°C° 0 mm 2 mps 763 mmHg 90%
    06:00 +15°C° 0 mm 2 mps 763 mmHg 82%
    07:00 +17°C° 0 mm 2 mps 763 mmHg 74%
    08:00 +18°C° 0 mm 2 mps 763 mmHg 66%
    09:00 +20°C° 0 mm 2 mps 764 mmHg 60%
    10:00 +23°C° 0 mm 2 mps 764 mmHg 54%
    11:00 +24°C° 0 mm 2 mps 764 mmHg 48%
    12:00 +25°C° 0 mm 2 mps 764 mmHg 47%
    13:00 +26°C° 0 mm 2 mps 764 mmHg 46%
    14:00 +27°C° 0 mm 2 mps 764 mmHg 46%
    15:00 +27°C° 0 mm 2 mps 764 mmHg 48%
    16:00 +27°C° 0 mm 2 mps 764 mmHg 50%
    17:00 +26°C° 0 mm 2 mps 764 mmHg 52%
    18:00 +25°C° 0 mm 2 mps 764 mmHg 60%
    19:00 +24°C° 0 mm 2 mps 764 mmHg 67%
    20:00 +21°C° 0 mm 2 mps 765 mmHg 74%
    21:00 +20°C° 0 mm 2 mps 765 mmHg 78%
    22:00 +19°C° 0 mm 2 mps 765 mmHg 81%
    23:00 +18°C° 0 mm 2 mps 766 mmHg 85%

    26 July, Friday

    Time Temperature Precipitation Wind Pressure Humidity
    00:00 +18°C° 0 mm 2 mps 766 mmHg 87%
    01:00 +18°C° 0 mm 2 mps 766 mmHg 90%
    02:00 +17°C° 0 mm 2 mps 766 mmHg 92%
    03:00 +17°C° 0 mm 2 mps 766 mmHg 91%
    04:00 +18°C° 0 mm 2 mps 767 mmHg 90%
    05:00 +19°C° 0 mm 1 mps 767 mmHg 89%
    06:00 +21°C° 0 mm 1 mps 767 mmHg 81%
    07:00 +23°C° 0 mm 1 mps 767 mmHg 72%
    08:00 +25°C° 0 mm 1 mps 767 mmHg 64%
    09:00 +27°C° 0 mm 1 mps 767 mmHg 58%
    10:00 +28°C° 0 mm 1 mps 767 mmHg 53%
    11:00 +30°C° 0 mm 1 mps 767 mmHg 47%
    12:00 +30°C° 0 mm 1 mps 766 mmHg 46%
    13:00 +30°C° 0 mm 1 mps 766 mmHg 44%
    14:00 +31°C° 0 mm 1 mps 766 mmHg 43%
    15:00 +30°C° 0 mm 2 mps 766 mmHg 44%
    16:00 +30°C° 0 mm 2 mps 765 mmHg 46%
    17:00 +29°C° 0 mm 2 mps 765 mmHg 47%
    18:00 +27°C° 0 mm 2 mps 765 mmHg 54%
    19:00 +25°C° 0 mm 2 mps 765 mmHg 61%
    20:00 +24°C° 0 mm 2 mps 765 mmHg 68%
    21:00 +23°C° 0 mm 2 mps 765 mmHg 70%
    22:00 +21°C° 0 mm 2 mps 765 mmHg 72%
    23:00 +20°C° 0 mm 2 mps 765 mmHg 73%

    27 July, Saturday

    Time Temperature Precipitation Wind Pressure Humidity
    00:00 +19°C° 0 mm 2 mps 765 mmHg 73%
    01:00 +19°C° 0 mm 2 mps 765 mmHg 74%
    02:00 +18°C° 0 mm 2 mps 765 mmHg 74%
    03:00 +18°C° 0 mm 2 mps 765 mmHg 73%
    04:00 +18°C° 0 mm 2 mps 765 mmHg 72%
    05:00 +19°C° 0 mm 2 mps 764 mmHg 71%
    06:00 +21°C° 0 mm 2 mps 764 mmHg 65%
    07:00 +24°C° 0 mm 2 mps 764 mmHg 58%
    08:00 +26°C° 0 mm 2 mps 764 mmHg 52%
    09:00 +27°C° 0 mm 2 mps 763 mmHg 50%
    10:00 +28°C° 0 mm 3 mps 763 mmHg 47%
    11:00 +30°C° 0 mm 3 mps 763 mmHg 45%
    12:00 +31°C° 0 mm 3 mps 763 mmHg 43%
    13:00 +31°C° 0 mm 3 mps 762 mmHg 42%
    14:00 +33°C° 0 mm 3 mps 762 mmHg 40%
    15:00 +32°C° 0 mm 4 mps 762 mmHg 43%
    16:00 +32°C° 0 mm 5 mps 762 mmHg 46%
    17:00 +30°C° 0 mm 5 mps 762 mmHg 49%
    18:00 +28°C° 0 mm 5 mps 762 mmHg 57%
    19:00 +24°C° 0 mm 6 mps 763 mmHg 65%
    20:00 +22°C° 0 mm 6 mps 763 mmHg 73%
    21:00 +20°C° 0 mm 6 mps 764 mmHg 71%
    22:00 +17°C° 0 mm 6 mps 764 mmHg 68%
    23:00 +15°C° 0 mm 5 mps 765 mmHg 66%

    28 July, Sunday

    Time Temperature Precipitation Wind Pressure Humidity
    00:00 +13°C° 0 mm 5 mps 765 mmHg 68%
    01:00 +12°C° 0 mm 5 mps 765 mmHg 69%
    02:00 +10°C° 0 mm 5 mps 766 mmHg 70%
    03:00 +10°C° 0 mm 5 mps 766 mmHg 70%
    04:00 +9°C° 0 mm 5 mps 766 mmHg 69%
    05:00 +10°C° 0 mm 4 mps 766 mmHg 69%
    06:00 +11°C° 0 mm 4 mps 766 mmHg 63%
    07:00 +13°C° 0 mm 4 mps 766 mmHg 58%
    08:00 +14°C° 0 mm 4 mps 766 mmHg 52%
    09:00 +15°C° 0 mm 4 mps 766 mmHg 47%
    10:00 +18°C° 0 mm 3 mps 766 mmHg 43%
    11:00 +19°C° 0 mm 2 mps 766 mmHg 38%
    12:00 +20°C° 0 mm 2 mps 766 mmHg 38%
    13:00 +21°C° 0 mm 2 mps 766 mmHg 38%
    14:00 +23°C° 0 mm 2 mps 765 mmHg 37%
    15:00 +23°C° 0 mm 2 mps 765 mmHg 40%
    16:00 +23°C° 0 mm 2 mps 765 mmHg 42%
    17:00 +23°C° 0 mm 2 mps 764 mmHg 44%
    18:00 +20°C° 0 mm 2 mps 764 mmHg 50%
    19:00 +19°C° 0 mm 2 mps 764 mmHg 55%
    20:00 +18°C° 0 mm 2 mps 764 mmHg 61%
    21:00 +18°C° 0 mm 2 mps 763 mmHg 64%
    22:00 +18°C° 0 mm 1 mps 763 mmHg 66%
    23:00 +18°C° 0 mm 1 mps 763 mmHg 69%
    Show more